Location: Ferchesar
(52.6477°N, 12.4298°E)
Time: 15:19:36
(UTC+01:00)

deb Explorer IX - Pass Details

Date: 07 December 2021
Orbit: 544 x 1082 km, 38.8° (Epoch: 18 January)

Event Time Altitude Azimuth Distance (km) Brightness Sun altitude
Rises 09:54:26 0° 224° (SW) 3,145 ? 9.8°
Reaches altitude 10° 09:58:19 10° 196° (SSW) 2,095 ? 10.0°
Maximum altitude 10:00:22 13° 171° (S) 1,859 ? 10.2°
Drops below altitude 10° 10:02:20 10° 145° (SE) 1,976 ? 10.3°
Sets 10:05:45 0° 116° (ESE) 2,795 ? 10.6°
